Flag for Russia Weather past 2 weeks in Yekaterinburg, Russia

12 °F

Passing clouds.

Feels Like: 12 °F
Forecast: 15 / 28 °F
Wind: 1 mph from East

Location: Ekaterinburg

Current Time: Dec 1, 2015 at 2:07:18 AM

Latest Report: Dec 1, 2015 at 1:30 AM

Visibility: 4 mi

Pressure: 30.15 "Hg

Humidity: 85%

Dew point: 9 °F

Location of YekaterinburgLocation

Historic Weather in Yekaterinburg — Graph


Yekaterinburg temperature yesterday

Maximum temperature yesterday: 32 °F (at 12:30 PM)
Minimum temperature yesterday: 12 °F (at 10:30 PM)
Average temperature yesterday: 25 °F

Past Weeks' High & Low Weather Summary

High39 °F (Nov 23, 2:00 PM)100% (Nov 23, 6:30 AM)30.51 "Hg (Nov 23, 6:30 AM)
Low-17 °F (Nov 20, 6:30 AM)69% (Nov 20, 7:30 AM)29.39 "Hg (Nov 28, 4:30 AM)
Average14 °F84%30.13 "Hg
* Reported Nov 16 1:00 AM — Dec 1 1:00 AM, Yekaterinburg, Weather by CustomWeather, © 2015

Note: Actual official high and low records may vary slightly from our data, if they occured in-between our weather recording intervals... More about our weather records


Yekaterinburg weather history for previous 24 hours

Time TempWeatherWind HumidityBarometerVisibility
1:00 AM
Tue, Dec 1
12 °FPassing clouds.No wind85%30.15 "Hg4 mi
12:30 AM14 °FIce fog.1 mph92%30.15 "Hg5 mi
12:00 AM14 °FPassing clouds.1 mph92%30.15 "Hg5 mi
11:30 PM
Mon, Nov 30
16 °FPassing clouds.3 mph93%30.15 "Hg4 mi
11:00 PM12 °FPassing clouds.1 mph85%30.15 "Hg4 mi
10:30 PM12 °FIce fog.3 mph85%30.15 "Hg2 mi
10:00 PM18 °FIce fog.3 mph93%30.15 "Hg2 mi
9:30 PM18 °FIce fog.1 mph93%30.15 "Hg1 mi
9:00 PM16 °FIce fog.1 mph93%30.15 "Hg2 mi
8:30 PM16 °FIce fog.1 mph93%30.15 "Hg3 mi
8:00 PM18 °FPassing clouds.1 mph93%30.18 "Hg4 mi
7:30 PM19 °FPassing clouds.3 mph86%30.18 "Hg4 mi
7:00 PM19 °FPassing clouds.3 mph93%30.18 "Hg4 mi
6:30 PM23 °FPassing clouds.1 mph80%30.18 "Hg5 mi
6:00 PM25 °FPassing clouds.3 mph80%30.18 "Hg5 mi
5:30 PM25 °FClear.1 mph80%30.18 "Hg10 mi
5:00 PM27 °FSunny.3 mph80%30.18 "Hg10 mi
4:30 PM28 °FSunny.8 mph74%30.18 "Hg10 mi
4:00 PM28 °FSunny.8 mph74%30.18 "Hg10 mi
3:30 PM30 °FSunny.6 mph75%30.18 "Hg10 mi
3:00 PM32 °FSunny.8 mph69%30.18 "Hg10 mi
2:30 PM32 °FSunny.8 mph69%30.15 "Hg10 mi
2:00 PM32 °FSunny.6 mph69%30.15 "Hg10 mi
1:30 PM32 °FSunny.8 mph69%30.15 "Hg10 mi
1:00 PM32 °FSunny.3 mph75%30.15 "Hg10 mi
12:30 PM32 °FSunny.6 mph75%30.15 "Hg10 mi
12:00 PM30 °FSunny.6 mph80%30.15 "Hg10 mi
11:30 AM28 °FSunny.10 mph80%30.15 "Hg10 mi
11:00 AM28 °FSunny.8 mph80%30.15 "Hg10 mi
10:30 AM27 °FSunny.8 mph86%30.15 "Hg10 mi
10:00 AM27 °FClear.6 mph86%30.15 "Hg10 mi
9:30 AM27 °FClear.6 mph86%30.15 "Hg10 mi
8:30 AM27 °FMostly cloudy.10 mph86%30.15 "HgN/A
8:00 AM27 °FMostly cloudy.8 mph86%30.12 "HgN/A
7:30 AM27 °FMostly cloudy.8 mph86%30.12 "HgN/A
7:00 AM27 °FMostly cloudy.10 mph86%30.12 "HgN/A
6:30 AM27 °FMostly cloudy.10 mph86%30.12 "HgN/A
5:30 AM27 °FOvercast.10 mph86%30.12 "HgN/A
5:00 AM27 °FOvercast.13 mph86%30.12 "HgN/A
4:30 AM27 °FOvercast.15 mph86%30.09 "HgN/A
4:00 AM27 °FOvercast.13 mph86%30.09 "HgN/A
3:30 AM27 °FOvercast.13 mph86%30.12 "HgN/A
3:00 AM27 °FOvercast.13 mph86%30.09 "HgN/A
2:30 AM27 °FOvercast.15 mph86%30.09 "HgN/A
2:00 AM25 °FOvercast.15 mph93%30.09 "HgN/A
Weather by CustomWeather, © 2015

See weather overviewHow to use our weather pages